GW4545 Weather Reports


Display with metric or nautical units.
time (UTC)temp
F
wind
direction
speed
MPH
gust
MPH
rain 1hr
in
rain 24hr
in
rain mn
in
humidity
%
barometer
mb
20260506160049 57 9 0.0 3.0 0.00 0.00 0.00 83 1021.7
20260506154605 56 0 1.0 3.0 0.00 0.00 0.00 82 1021.5
20260506153049 56 0 1.0 3.0 0.00 0.00 0.00 82 1021.3
20260506151542 56 19 1.0 3.0 0.00 0.00 0.00 84 1020.9
20260506150050 55 352 1.0 4.0 0.00 0.00 0.00 85 1021.2
20260506144552 55 0 0.0 4.0 0.00 0.00 0.00 87 1021.4
20260506143048 54 5 1.0 4.0 0.00 0.00 0.00 88 1021.6
20260506141542 53 5 0.0 5.0 0.00 0.00 0.00 89 1021.4
20260506140042 53 0 0.0 2.0 0.00 0.00 0.00 92 1021.2
20260506134550 52 250 0.0 0.0 0.00 0.00 0.00 92 1020.8
20260506133058 52 0 0.0 2.0 0.00 0.00 0.00 93 1020.8
20260506131549 51 0 0.0 1.0 0.00 0.00 0.00 94 1020.7
20260506130052 51 280 0.0 2.0 0.00 0.00 0.00 94 1020.5
20260506124544 51 280 1.0 3.0 0.00 0.00 0.00 93 1020.3
20260506123050 51 278 0.0 2.0 0.00 0.00 0.00 90 1020.0
20260506121548 53 0 0.0 0.0 0.00 0.00 0.00 89 1020.1
20260506120048 54 0 0.0 0.0 0.00 0.00 0.00 87 1020.1
20260506114549 55 0 0.0 1.0 0.00 0.00 0.00 87 1020.0
20260506113042 55 352 0.0 3.0 0.00 0.00 0.00 86 1020.0
20260506111547 55 352 1.0 3.0 0.00 0.00 0.00 86 1020.0
20260506110047 55 5 1.0 5.0 0.00 0.00 0.00 87 1019.9
20260506104608 55 5 2.0 4.0 0.00 0.00 0.00 86 1019.7
20260506103045 55 5 1.0 7.0 0.00 0.00 0.00 87 1019.5
20260506101549 55 313 1.0 8.0 0.00 0.00 0.00 87 1019.5
20260506100045 55 0 1.0 6.0 0.00 0.00 0.00 87 1019.2
20260506094543 55 11 1.0 7.0 0.00 0.00 0.00 87 1019.0
20260506093040 55 337 2.0 6.0 0.00 0.00 0.00 87 1018.9
20260506091548 55 31 1.0 4.0 0.00 0.00 0.00 87 1019.0
20260506090048 55 0 0.0 4.0 0.00 0.00 0.00 87 1018.9
20260506084545 55 9 0.0 4.0 0.00 0.00 0.00 87 1018.9
20260506083048 55 14 1.0 4.0 0.00 0.00 0.00 87 1018.9
20260506081541 55 342 0.0 4.0 0.00 0.00 0.00 88 1018.9
20260506073050 55 0 0.0 2.0 0.00 0.00 0.00 92 1018.6
20260506071545 55 0 0.0 0.0 0.00 0.00 0.00 93 1018.5
20260506061547 57 0 0.0 0.0 0.00 0.00 0.00 91 1018.1
20260506044556 57 0 0.0 2.0 0.00 0.00 0.00 89 1017.8
20260506043053 57 0 0.0 0.0 0.00 0.00 0.00 89 1017.7
20260506041547 57 0 0.0 3.0 0.00 0.00 0.00 88 1017.5
20260506040050 57 252 0.0 3.0 0.00 0.00 0.00 88 1017.2
20260506034549 57 242 1.0 3.0 0.00 0.00 0.00 87 1017.0
20260506033048 58 247 1.0 3.0 0.00 0.00 0.00 85 1016.9
20260506031547 60 229 1.0 2.0 0.00 0.00 0.00 82 1016.7
20260506030047 62 0 0.0 4.0 0.00 0.00 0.00 76 1016.7
20260506024552 63 114 0.0 2.0 0.00 0.00 0.00 75 1016.6
20260506023055 64 0 1.0 6.0 0.00 0.00 0.00 74 1016.4
20260506021557 65 98 1.0 3.0 0.00 0.00 0.00 72 1016.2
20260506020045 66 111 1.0 4.0 0.00 0.00 0.00 72 1016.2
20260506014547 66 0 0.0 4.0 0.00 0.00 0.00 71 1016.1
20260506013048 66 15 2.0 6.0 0.00 0.00 0.00 72 1016.4
20260506011548 66 44 1.0 6.0 0.00 0.00 0.00 72 1016.3
20260506010048 67 42 1.0 4.0 0.00 0.00 0.00 70 1016.4
20260506004540 66 101 1.0 4.0 0.00 0.00 0.00 71 1016.5
20260506003042 66 113 2.0 5.0 0.00 0.00 0.00 71 1016.5
20260506001555 66 77 1.0 8.0 0.00 0.00 0.00 71 1016.5
20260506000047 66 115 1.0 5.0 0.00 0.00 0.00 73 1016.6
20260505234605 66 60 2.0 7.0 0.00 0.00 0.00 71 1016.6
20260505233047 65 92 2.0 7.0 0.00 0.00 0.00 71 1016.9
20260505231542 65 80 3.0 7.0 0.00 0.00 0.00 72 1017.2
20260505230046 64 40 1.0 6.0 0.00 0.00 0.00 74 1017.2
20260505224541 63 94 3.0 6.0 0.00 0.00 0.00 72 1017.3
20260505223102 63 103 2.0 7.0 0.00 0.00 0.00 73 1017.4
20260505221543 63 78 1.0 6.0 0.00 0.00 0.00 75 1017.4
20260505220046 62 84 0.0 5.0 0.00 0.00 0.00 75 1017.5
20260505214552 61 38 2.0 6.0 0.00 0.00 0.00 79 1017.5
20260505213048 61 36 2.0 7.0 0.00 0.00 0.00 77 1017.6
20260505211552 61 28 2.0 8.0 0.00 0.00 0.00 78 1017.6
20260505210041 61 56 1.0 5.0 0.00 0.00 0.00 77 1017.7
20260505204547 60 155 1.0 8.0 0.00 0.00 0.00 79 1017.9
20260505203113 60 70 4.0 9.0 0.00 0.00 0.00 79 1018.0
20260505201545 60 0 1.0 6.0 0.00 0.00 0.00 82 1018.0
20260505200046 59 24 2.0 6.0 0.00 0.00 0.00 80 1018.1
20260505194544 58 38 2.0 5.0 0.00 0.00 0.00 82 1018.1
20260505193042 58 94 1.0 4.0 0.00 0.00 0.00 84 1018.2
20260505191546 57 90 2.0 4.0 0.00 0.00 0.00 85 1018.0
20260505190046 57 0 0.0 4.0 0.00 0.00 0.00 84 1018.1
20260505184552 56 137 1.0 4.0 0.00 0.00 0.00 85 1018.1
20260505183048 56 0 2.0 4.0 0.00 0.00 0.00 85 1018.0
20260505181553 56 41 2.0 4.0 0.00 0.00 0.00 87 1018.0
20260505180056 56 78 1.0 4.0 0.00 0.00 0.00 90 1018.0
20260505174545 55 95 2.0 4.0 0.00 0.00 0.00 89 1017.9
20260505173048 55 0 1.0 3.0 0.00 0.00 0.00 90 1017.9
20260505171548 55 101 0.0 3.0 0.00 0.00 0.00 88 1017.8
20260505170052 55 352 0.0 2.0 0.00 0.00 0.00 87 1017.6
20260505164547 54 0 1.0 3.0 0.00 0.00 0.00 88 1017.4
20260505163048 54 71 0.0 2.0 0.00 0.00 0.00 88 1017.3
20260505161548 54 38 1.0 4.0 0.00 0.00 0.00 90 1017.3